Torna al catalogo

CZ-6A DEB

AttivoPO
NORAD 55516·DEBRIS·🇨🇳 China

Lanciato Nov 11, 2022 da Taiyuan Satellite Launch Center

Loading…

Prossimi Passaggi (prossime 24 ore)

TLE

AggiornatoSource: Space-Track

Epoca: Sep 13, 2026, 04:58 UTC

1 55516U 22151XN  26256.20719833  .00080052  00000-0  34431-2 0  9999
2 55516  98.5804 350.0284 0024237 264.5419  95.3048 15.22042768199824

Traccia CZ-6A DEB in tempo reale con AllMySat

Download on the App Store